Tracking 34717 objects as of 14-Jul-2026
HD Live streaming from Space Station
objects crossing your sky now

SL-8 DEB

Track SL-8 DEB now!
10-day predictions


NORAD ID: 5778
Int'l Code: 1971-114C
Perigee: 569.9 km
Apogee: 578.7 km
Inclination: 74.0 °
Period: 96.0 minutes
Semi major axis: 6945 km
RCS: 0.0065 m2 (small)
Launch date: December 17, 1971
Source: Commonwealth of Independent States (former USSR) (CIS)
Launch site: PLESETSK MISSILE AND SPACE COMPLEX (PKMTR)

Note: This is SATELLITE DEBRIS
Your satellite tracking list
Your tracking list is empty




NASA's NSSDC Master Catalog

Two Line Element Set (TLE):
1 05778U 71114C   26195.29510938  .00003682  00000-0  29973-3 0  9993
2 05778  74.0026 288.8779 0006321 358.4102   1.7064 14.99920081903487
Source of the keplerian elements: AFSPC